Regional Weather Roundup
Issued by NWS Goodland, KS

Home | Current Version | Previous Version | Text Only | Print | Product List | Glossary Off
Versions: 1 2 3 4 5 6 7 8 9 10 11 12 13 14 15 16 17 18 19 20 21 22 23 24 25 26 27 28 29 30 31 32 33 34 35 36 37 38 39 40 41 42 43 44 45 46 47 48 49 50

000
ASUS43 KGLD 221959
RWRGLD

GOODLAND FORECAST AREA HOURLY WEATHER ROUNDUP
NATIONAL WEATHER SERVICE GOODLAND KS
200 PM MDT TUE APR 22 2014

...OFFICIAL OBSERVATIONS...

CITY           SKY/WX    TMP DP  RH WIND       PRES   REMARKS
GOODLAND KS    SUNNY     77  43  29 S32G39    29.89F
HILL CITY KS   SUNNY     76  35  22 S22G36    29.96F
IMPERIAL NEB   PTSUNNY   76  35  22 S25G38    29.86F
MCCOOK NEB     MOSUNNY   76  36  23 S31G40    29.92F
AKRON CO       MOSUNNY   78  32  18 S14G25    29.84F
BURLINGTON CO  SUNNY     82  40  22 SW23G43   29.87F
LIMON CO       MOSUNNY   77  28  16 SW15G23   29.88F
$$

...UNOFFICIAL OBSERVATIONS...

CITY           SKY/WX    TMP DP  RH WIND       PRES   REMARKS
COLBY KS       SUNNY     75  41  29 S31G39    29.95F
LENORA KS        N/A     72  32  23 SE23        N/A
LEOTI KS         N/A     76  32  20 S25         N/A
NORTON KS      SUNNY     72  32  23 SE21G31   29.96S
SHARON SPRINGS   N/A     78  48  34 S26G43      N/A
WAKEENEY KS      N/A     74  34  23 MISG        N/A
KIT CARSON CO    N/A     79  41  25 MISG        N/A
$$



USA.gov is the U.S. government's official web portal to all federal, state and local government web resources and services.